Location: Newark
(47.4417°N, 1.1394°W)
Time: 20:37:26
(UTC+00:00)

Envisat - Pass Details

Date: 21 November 2019
Orbit: 764 x 766 km, 98.1° (Epoch: 11 December)

Event Time Altitude Azimuth Distance (km) Brightness Sun altitude
Rises 17:41:44 0° 158° (SSE) 3,221 6.2 -13.1°
Reaches altitude 10° 17:44:02 10° 156° (SSE) 2,298 5.4 -13.5°
Maximum altitude 17:49:04 71° 73° (ENE) 813 2.9 -14.3°
Drops below altitude 10° 17:54:09 10° 350° (N) 2,314 5.5 -15.2°
Sets 17:56:28 0° 349° (NNW) 3,244 6.2 -15.6°
